Home   Weather   Córdoba   Past weeks

Flag for Spain Past Weather in Córdoba, Spain — Yesterday and Last 2 Weeks

Now
84 °F

Sunny.


Feels Like: 82 °F
Forecast: 55 / 90 °F
Wind: 1 mph from Southeast

Location: Cordoba / Aeropuerto

Current Time: Sep 25, 2016 at 2:26:35 PM

Latest Report: Sep 25, 2016 at 2:00 PM


Visibility: 10 mi

Pressure: 30.09 "Hg

Humidity: 33%

Dew Point: 52 °F

Location of CórdobaLocation

Past Weather in Córdoba — Graph

°F

Córdoba Temperature Yesterday

Maximum temperature yesterday: 90 °F (at 5:00 PM)
Minimum temperature yesterday: 59 °F (at 7:00 AM)
Average temperature yesterday: 73 °F

High & Low Weather Summary for the Past Weeks

 TemperatureHumidityPressure
High97 °F (Sep 12, 4:30 PM)94% (Sep 22, 5:30 AM)30.21 "Hg (Sep 22, 5:30 AM)
Low52 °F (Sep 15, 6:30 AM)17% (Sep 17, 5:30 PM)29.83 "Hg (Sep 12, 6:00 PM)
Average73 °F51%30.04 "Hg
* Reported Sep 10 1:00 PM — Sep 25 1:00 PM, Córdoba, Weather by CustomWeather, © 2016

Note: Actual official high and low records may vary slightly from our data, if they occured in-between our weather recording intervals... More about our weather records

Advertising

Córdoba Weather History for the Previous 24 Hours

Scroll right to see more
 ConditionsComfort  
Time TempWeatherWind HumidityBarometerVisibility
1:00 PM
Sun, Sep 25
81 °FSunny.1 mph39%30.12 "Hg10 mi
12:30 PM81 °FSunny.1 mph42%30.12 "Hg10 mi
12:00 PM77 °FSunny.1 mph47%30.12 "Hg10 mi
11:30 AM75 °FSunny.1 mph50%30.15 "Hg10 mi
11:00 AM72 °FSunny.No wind57%30.15 "Hg10 mi
10:30 AM70 °FSunny.No wind60%30.12 "Hg10 mi
10:00 AM70 °FSunny.1 mph57%30.12 "Hg10 mi
9:30 AM66 °FSunny.No wind68%30.12 "Hg10 mi
9:00 AM63 °FSunny.No wind73%30.12 "Hg10 mi
8:30 AM61 °FSunny.No wind72%30.12 "Hg10 mi
8:00 AM59 °FClear.No wind77%30.12 "Hg10 mi
7:30 AM61 °FCool.No wind72%30.12 "HgN/A
7:00 AM63 °FMild.1 mph73%30.12 "HgN/A
6:30 AM61 °FCool.1 mph77%30.12 "HgN/A
6:00 AM66 °FMild.No wind64%30.12 "HgN/A
5:30 AM66 °FMild.No wind64%30.12 "HgN/A
5:00 AM66 °FMild.2 mph64%30.12 "HgN/A
4:30 AM64 °FMild.1 mph68%30.09 "HgN/A
4:00 AM66 °FMild.1 mph64%30.09 "HgN/A
3:30 AM70 °FMild.2 mph57%30.09 "HgN/A
3:00 AM70 °FMild.3 mph53%30.09 "HgN/A
2:30 AM72 °FMild.2 mph53%30.09 "HgN/A
2:00 AM70 °FMild.3 mph57%30.09 "HgN/A
1:00 AM72 °FMild.3 mph50%30.07 "HgN/A
12:30 AM73 °FMild.6 mph47%30.07 "HgN/A
12:00 AM73 °FMild.3 mph47%30.07 "HgN/A
11:30 PM
Sat, Sep 24
73 °FMild.1 mph41%30.07 "HgN/A
11:00 PM77 °FPleasantly warm.1 mph39%30.07 "HgN/A
10:30 PM77 °FPleasantly warm.3 mph39%30.07 "HgN/A
10:00 PM79 °FPleasantly warm.6 mph34%30.07 "HgN/A
9:30 PM77 °FPleasantly warm.No wind36%30.04 "HgN/A
9:00 PM77 °FPleasantly warm.2 mph36%30.04 "HgN/A
8:30 PM79 °FPleasantly warm.2 mph37%30.04 "HgN/A
8:00 PM84 °FPleasantly warm.2 mph27%30.04 "HgN/A
7:30 PM88 °FPleasantly warm.2 mph24%30.04 "HgN/A
7:00 PM90 °FHot.2 mph21%30.04 "HgN/A
6:00 PM90 °FHot.3 mph22%30.04 "HgN/A
5:30 PM90 °FHot.1 mph24%30.04 "HgN/A
5:00 PM90 °FHot.2 mph24%30.04 "HgN/A
4:30 PM88 °FPleasantly warm.1 mph27%30.07 "HgN/A
4:00 PM88 °FPleasantly warm.1 mph27%30.07 "HgN/A
3:00 PM86 °FSunny.1 mph31%30.09 "Hg10 mi
2:00 PM84 °FSunny.No wind33%30.12 "Hg10 mi
Weather by CustomWeather, © 2016

See weather overviewHow to use our weather pages